[[{"header":{"parameterUnit":"m.s-1","parameterCategory":1,"la1":30.2991,"la2":30.254,"lo1":-89.0895,"lo2":-89.0444,"dy":0.0017,"dx":0.0017,"nx":28,"ny":28,"refTime":"2023-10-25T09:00:00:Z","depth":0,"parameterNumber":2,"parameterNumberName":"U-component_of_WINDS"},"data":[0,0,0,0,0,0,0,0,0,0,0,0,0,0,0,0,0,0,0,0,0,0,0,0,0,0,0,0,0,0,0,0,0,0,0,0,0,0,0,0,0,0,0,0,0,0,0,0,0,0,0,0,0,0,0,0,0,0,-4.5196,-4.5197,0,-4.5251,-4.5252,-4.5252,-4.5158,-4.5155,-4.5152,-4.5149,-4.5204,-4.5208,-4.5213,0,0,0,0,0,0,0,0,0,0,0,0,0,-4.501,-4.5014,-4.5196,-4.5197,-4.5197,-4.5251,-4.5252,-4.5252,-4.5159,-4.5155,-4.5151,-4.5147,-4.5202,-4.5208,-4.5213,0,0,0,0,0,0,0,0,0,0,0,0,0,-4.5081,-4.5015,-4.5196,-4.5157,-4.5154,-4.5251,-4.5252,-4.5253,-4.516,-4.5155,-4.515,-4.5146,-4.5201,-4.5207,-4.5214,-4.535,0,0,-4.5234,-4.5237,0,0,0,0,0,0,0,0,-4.5077,-4.5088,-4.5162,-4.516,-4.5157,-4.5193,-4.5206,-4.5285,-4.5161,-4.5157,-4.5149,-4.5143,-4.5204,-4.521,-4.5231,-4.5353,-4.5355,-4.5235,-4.5239,-4.5242,-4.5243,0,0,0,0,0,0,0,-4.5072,-4.5085,-4.5218,-4.5163,-4.516,-4.5137,-4.5142,-4.5221,-4.5207,-4.5157,-4.5151,-4.5159,-4.5202,-4.5225,-4.5231,-4.5356,-4.5234,-4.524,-4.5244,-4.5247,-4.5594,-4.5599,0,0,0,0,0,0,-4.5072,-4.5081,-4.5216,-4.5219,-4.5104,-4.5144,-4.515,-4.5186,-4.5206,-4.5204,-4.5163,-4.5154,-4.5216,-4.5224,-4.5233,-4.5393,-4.5241,-4.5248,-4.5252,-4.5589,-4.5595,-4.5601,0,0,0,0,0,0,-4.5068,-4.5085,-4.5214,-4.5149,-4.5163,-4.5153,-4.5194,-4.519,-4.5212,-4.521,-4.5207,-4.5189,-4.5212,-4.5224,-4.5322,-4.5394,-4.5251,-4.5257,-4.5583,-4.5591,-4.5598,-4.5716,0,0,0,0,0,0,-4.5063,-4.5084,-4.5135,-4.515,-4.5167,-4.5302,-4.5199,-4.5194,-4.5224,-4.5214,-4.5233,-4.5232,-4.5209,-4.5313,-4.5329,-4.5401,-4.5262,-4.5576,-4.5586,-4.5596,-4.5706,-4.5727,-4.5745,0,0,0,0,0,-4.5057,-4.5166,-4.5138,-4.5155,-4.5231,-4.5306,-4.5315,-4.5288,-4.5231,-4.5282,-4.5281,-4.5231,-4.5385,-4.5324,-4.5341,-4.5416,-4.5571,-4.5583,-4.5595,-4.5697,-4.5723,-4.5745,0,0,0,0,0,0,-4.5158,-4.5167,-4.5136,-4.5253,-4.528,-4.529,-4.5353,-4.5316,-4.5359,-4.5347,-4.5311,-4.5316,-4.5422,-4.5429,-4.5361,-4.555,-4.5468,-4.5484,-4.554,-4.5565,-4.5584,-4.5578,-4.5267,0,0,0,0,0,-4.5195,-4.5255,-4.5259,-4.5362,-4.5377,-4.5364,-4.5395,-4.5372,-4.5398,-4.5408,-4.5414,-4.5441,-4.5495,-4.5531,-4.558,-4.5708,-4.571,-4.5769,-4.5788,-4.5805,-4.5817,-4.5885,-4.5911,-4.5639,-4.5639,-4.5639,0,0,-4.5269,-4.5281,-4.5321,-4.5383,-4.54,-4.5464,-4.5373,-4.5444,-4.549,-4.5419,-4.5511,-4.5518,-4.5545,-4.5659,-4.5709,-4.5668,-4.5894,-4.582,-4.5833,-4.5836,-4.59,-4.5926,-4.5949,-4.5647,-4.5646,-4.5645,0,0,-4.5436,-4.5453,-4.554,-4.556,-4.5589,-4.558,-4.5601,-4.5618,-4.5619,-4.5713,-4.5661,-4.5716,-4.581,-4.5832,-4.5855,-4.6037,-4.5992,-4.6054,-4.6156,-4.6223,-4.6244,-4.6263,-4.6325,-4.6349,-4.6068,-4.6068,-4.6068,0,-4.5524,-4.5618,-4.5589,-4.5664,-4.5692,-4.5633,-4.5721,-4.5742,-4.5786,-4.5807,-4.5762,-4.588,-4.5894,-4.6012,-4.6056,-4.6078,-4.6101,-4.6049,-4.6243,-4.6262,-4.6279,-4.6338,-4.6362,-4.6075,-4.6074,-4.6074,-4.6073,0,-4.5725,-4.5791,-4.5858,-4.5902,-4.5939,-4.602,-4.6004,-4.6045,-4.6021,-4.6017,-4.6113,-4.613,-4.6182,-4.6209,-4.6185,-4.6324,-4.6298,-4.6249,-4.6166,-4.6312,-4.6367,-4.639,-4.6085,-4.6083,-4.6081,-4.6079,0,0,-4.5952,-4.5982,-4.6007,-4.6027,-4.6056,-4.6106,-4.6187,-4.6238,-4.6274,-4.6308,-4.6372,-4.6456,-4.6411,-4.6438,-4.6417,-4.6476,-4.6617,-4.642,-4.642,-4.6454,-4.6771,-4.6805,-4.6832,-4.659,-4.6595,-4.6598,-4.6768,0,-4.6116,-4.6253,-4.6231,-4.6363,-4.6424,-4.6371,-4.644,-4.6466,-4.6466,-4.6518,-4.6518,-4.6577,-4.6514,-4.653,-4.6587,-4.6588,-4.668,-4.6576,-4.6649,-4.6652,-4.664,-4.6861,-4.6897,-4.7056,-4.6789,-4.6793,-4.6796,0,-4.6325,-4.6367,-4.6506,-4.6527,-4.6552,-4.6614,-4.6661,-4.6712,-4.6741,-4.6737,-4.6769,-4.6738,-4.6818,-4.6738,-4.6847,-4.6777,-4.6807,-4.6813,-4.6818,-4.6821,-4.673,-4.6866,-4.7106,-4.7129,-4.683,-4.6827,-4.6824,0,-4.6474,-4.6566,-4.666,-4.668,-4.6708,-4.6753,-4.6767,-4.6791,-4.6825,-4.6867,-4.6888,-4.6939,-4.6966,-4.7006,-4.699,-4.6933,-4.7103,-4.7021,-4.7101,-4.7101,-4.7135,-4.7132,-4.7379,-4.7161,-4.716,-4.716,-4.7159,0,-4.6658,-4.6744,-4.6728,-4.6786,-4.6881,-4.6858,-4.6953,-4.696,-4.6984,-4.7042,-4.7001,-4.7057,-4.7034,-4.7089,-4.7077,-4.7169,-4.7183,-4.7181,-4.7176,-4.7183,-4.7183,-4.7198,-4.7186,-4.7166,-4.7165,-4.7163,-4.7162,0,-4.6838,-4.6831,-4.693,-4.695,-4.6957,-4.7027,-4.7043,-4.7098,-4.7097,-4.7172,-4.7188,-4.7186,-4.7249,-4.7238,-4.7308,-4.73,-4.7415,-4.7398,-4.7404,-4.7399,-4.7478,-4.747,-4.7741,-4.7775,-4.7538,-4.754,-4.7542,0,-4.6954,-4.7019,-4.7047,-4.7083,-4.7101,-4.716,-4.7195,-4.7176,-4.7213,-4.7253,-4.7303,-4.7363,-4.7408,-4.7512,-4.7516,-4.757,-4.7552,-4.7644,-4.7559,-4.7564,-4.755,-4.7545,-4.7551,-4.7659,-4.7662,-4.7664,-4.7666,0,-4.7159,-4.7153,-4.7204,-4.7256,-4.7299,-4.7338,-4.7373,-4.7406,-4.739,-4.7435,-4.7499,-4.7535,-4.7607,-4.7666,-4.7717,-4.7731,-4.7696,-4.7693,-4.7714,-4.7719,-4.7719,-4.7718,-4.7446,-4.7686,-4.7684,-4.7682,-4.7681,-4.768,-4.7309,-4.7364,-4.7393,-4.7452,-4.7477,-4.7512,-4.7564,-4.7571,-4.7624,-4.7681,-4.7668,-4.774,-4.777,-4.7835,-4.7856,-4.7912,-4.7878,-4.7909,-4.7916,-4.7923,-4.7931,-4.7714,-4.7922,-4.7921,-4.7921,-4.792,-4.792,0,-4.751,-4.7526,-4.7581,-4.7633,-4.768,-4.7645,-4.7683,-4.7725,-4.7789,-4.7821,-4.7868,-4.7942,-4.8001,-4.8012,-4.8068,-4.8111,-4.8097,-4.8126,-4.8121,-4.8125,-4.796,-4.7935,-4.8137,-4.8137,-4.8137,-4.8137,-4.8137,-4.8137,-4.7619,-4.7711,-4.771,-4.7815,-4.7831,-4.7902,-4.7927,-4.7959,-4.7984,-4.8069,-4.8118,-4.8126,-4.8149,-4.8207,-4.8259,-4.8261,-4.8283,-4.8318,-4.8314,-4.8158,-4.8136,-4.8115,-4.8092,-4.8324,-4.8324,-4.8474,-4.8475,-4.8476]},{"header":{"parameterUnit":"m.s-1","parameterCategory":1,"la1":30.2991,"la2":30.254,"lo1":-89.0895,"lo2":-89.0444,"dy":0.0017,"dx":0.0017,"nx":28,"ny":28,"refTime":"2023-10-25T09:00:00:Z","depth":0,"parameterNumber":3,"parameterNumberName":"V-component_of_WINDS"},"data":[0,0,0,0,0,0,0,0,0,0,0,0,0,0,0,0,0,0,0,0,0,0,0,0,0,0,0,0,0,0,0,0,0,0,0,0,0,0,0,0,0,0,0,0,0,0,0,0,0,0,0,0,0,0,0,0,0,0,2.2409,2.2409,0,2.2391,2.2391,2.239,2.2289,2.2286,2.2284,2.2281,2.2263,2.2265,2.2267,0,0,0,0,0,0,0,0,0,0,0,0,0,2.236,2.2361,2.2409,2.2409,2.2409,2.2391,2.2391,2.239,2.2289,2.2286,2.2283,2.228,2.2263,2.2265,2.2267,0,0,0,0,0,0,0,0,0,0,0,0,0,2.2365,2.2361,2.2409,2.2356,2.2351,2.2391,2.2391,2.239,2.229,2.2286,2.2282,2.2279,2.2262,2.2265,2.2267,2.2357,0,0,2.2275,2.2277,0,0,0,0,0,0,0,0,2.2365,2.2367,2.2364,2.236,2.2354,2.2338,2.2366,2.2379,2.2291,2.2313,2.2281,2.2277,2.2291,2.2291,2.2296,2.2356,2.2355,2.2276,2.2277,2.2278,2.2279,0,0,0,0,0,0,0,2.2365,2.2367,2.2402,2.2364,2.2358,2.2334,2.2331,2.2368,2.2323,2.2311,2.2303,2.2303,2.2288,2.2294,2.2295,2.2355,2.2276,2.2278,2.228,2.2281,2.2491,2.2495,0,0,0,0,0,0,2.2372,2.2368,2.2402,2.2401,2.2351,2.2338,2.2334,2.2347,2.2322,2.2315,2.2306,2.2298,2.2291,2.2292,2.2294,2.2398,2.2278,2.2281,2.2282,2.2487,2.2492,2.2496,0,0,0,0,0,0,2.2371,2.2376,2.2403,2.2383,2.2384,2.2343,2.2358,2.2349,2.2354,2.2318,2.231,2.232,2.2288,2.229,2.2343,2.2396,2.2282,2.2285,2.2482,2.2488,2.2494,2.2606,0,0,0,0,0,0,2.237,2.2376,2.2408,2.2384,2.2386,2.2451,2.2361,2.2351,2.2359,2.2349,2.2329,2.2322,2.2285,2.2339,2.2345,2.2397,2.2287,2.2477,2.2485,2.2492,2.2597,2.2615,2.263,0,0,0,0,0,2.2369,2.244,2.2411,2.2415,2.2425,2.2455,2.2456,2.2411,2.2364,2.2397,2.2374,2.2323,2.239,2.2345,2.2351,2.2405,2.2474,2.2483,2.2491,2.259,2.2612,2.263,0,0,0,0,0,0,2.2471,2.2436,2.2402,2.2468,2.2466,2.2437,2.2477,2.2435,2.2445,2.2435,2.238,2.2377,2.2438,2.2427,2.2378,2.2492,2.2423,2.2434,2.2496,2.2516,2.2533,2.2533,2.2289,0,0,0,0,0,2.2501,2.2527,2.2496,2.2557,2.2558,2.2519,2.2529,2.2496,2.2491,2.2489,2.247,2.2467,2.2488,2.2502,2.2518,2.2597,2.2592,2.2637,2.2654,2.2668,2.2676,2.2719,2.2739,2.2525,2.2525,2.2525,0,0,2.2564,2.2548,2.2567,2.2577,2.2571,2.26,2.2518,2.2551,2.2573,2.2494,2.2542,2.2529,2.2523,2.2589,2.2617,2.2582,2.2735,2.2679,2.269,2.2691,2.273,2.275,2.2768,2.2532,2.253,2.2529,0,0,2.2692,2.2683,2.2733,2.273,2.2722,2.2696,2.2709,2.2689,2.2677,2.2725,2.2667,2.2693,2.2729,2.2727,2.2731,2.2865,2.2819,2.2873,2.2957,2.2999,2.3016,2.3031,2.3078,2.3096,2.2882,2.2883,2.2883,0,2.277,2.2811,2.2765,2.2803,2.281,2.2742,2.2794,2.2793,2.2791,2.2798,2.2759,2.2805,2.2795,2.2861,2.2894,2.29,2.2913,2.2873,2.3018,2.3032,2.3045,2.3089,2.3108,2.2889,2.2888,2.2888,2.2887,0,2.2908,2.2938,2.298,2.2981,2.2993,2.3038,2.3,2.3019,2.2986,2.2965,2.3017,2.3005,2.3018,2.3032,2.3,2.3095,2.3073,2.3027,2.2956,2.3072,2.3113,2.313,2.2899,2.2896,2.2894,2.2893,0,0,2.3094,2.3073,2.3089,2.309,2.3079,2.3102,2.3146,2.316,2.3177,2.318,2.3216,2.325,2.3209,2.3213,2.3181,2.3219,2.3326,2.3168,2.3167,2.3197,2.3431,2.3464,2.3484,2.3297,2.33,2.3303,2.3431,0,2.3216,2.3288,2.3251,2.3328,2.3356,2.3295,2.3334,2.3332,2.3315,2.3338,2.3319,2.3345,2.3288,2.329,2.3325,2.3306,2.3372,2.3297,2.3329,2.3331,2.333,2.3506,2.354,2.3661,2.3447,2.3449,2.3451,0,2.3367,2.3378,2.3458,2.3445,2.3456,2.3491,2.3502,2.3525,2.3523,2.3509,2.3517,2.3477,2.3521,2.3454,2.3513,2.3463,2.3475,2.3469,2.3473,2.3471,2.3396,2.3508,2.3699,2.3717,2.3476,2.3474,2.3473,0,2.3494,2.3529,2.3582,2.3585,2.3571,2.3598,2.3594,2.3588,2.3601,2.3612,2.362,2.3636,2.3645,2.3659,2.3626,2.358,2.3691,2.3621,2.368,2.3681,2.3703,2.3702,2.3897,2.3715,2.3715,2.3714,2.3714,0,2.3632,2.3684,2.364,2.3672,2.3729,2.3687,2.3745,2.3734,2.3732,2.3762,2.3711,2.3741,2.3696,2.3722,2.3697,2.3751,2.3756,2.3745,2.3737,2.3748,2.375,2.3753,2.3743,2.3719,2.3718,2.3717,2.3716,0,2.3782,2.3754,2.3808,2.3793,2.379,2.3833,2.382,2.385,2.3832,2.3872,2.3879,2.385,2.3878,2.3848,2.3874,2.3857,2.393,2.391,2.393,2.3924,2.3984,2.3979,2.4187,2.4212,2.4016,2.4018,2.402,0,2.3871,2.3909,2.3899,2.3916,2.3915,2.3944,2.3957,2.3919,2.3935,2.3939,2.3969,2.3994,2.401,2.4059,2.4041,2.4061,2.4041,2.4113,2.4044,2.4055,2.4041,2.4039,2.4043,2.4126,2.4129,2.413,2.4132,0,2.4031,2.4017,2.4038,2.4056,2.4073,2.4085,2.4093,2.411,2.4071,2.4092,2.4121,2.4135,2.4163,2.4188,2.4204,2.42,2.4161,2.4155,2.4169,2.418,2.4189,2.4184,2.3966,2.4149,2.4147,2.4146,2.4145,2.4145,2.4152,2.4184,2.4183,2.4209,2.4212,2.4222,2.425,2.4238,2.4261,2.4281,2.4258,2.4294,2.4295,2.4313,2.4315,2.4343,2.4312,2.4334,2.4339,2.4344,2.4353,2.4187,2.4346,2.4345,2.4345,2.4344,2.4344,0,2.4309,2.4307,2.4332,2.4345,2.4367,2.433,2.4338,2.4358,2.4391,2.4395,2.4415,2.445,2.4475,2.4461,2.4483,2.4509,2.4491,2.4516,2.4512,2.4513,2.4379,2.4364,2.453,2.453,2.453,2.453,2.453,2.453,2.4393,2.4446,2.4433,2.4489,2.4486,2.4521,2.4529,2.4539,2.4543,2.4584,2.4605,2.4597,2.4595,2.4617,2.464,2.4635,2.4645,2.4676,2.4665,2.454,2.4522,2.4504,2.4489,2.4679,2.468,2.4796,2.4797,2.4798]}]]